Gordo, Alabama
Current Conditions -  °F | °C
As of 3:30 AM on Sunday 26 Oct 2014 (Local Time) from KTCL Reporting Station
Few Clouds Few Clouds  
Wind Chill: 56°   Ceiling: Unl
Heat Index: 56°   Visibility: 10mi
Dew Point: 55°   Wind: 0mph
Humidity: 97%   Direction: NA
Pressure: 30.02"   Gusts: NA
Location:  33.32°N, 87.9°W
Report Text: KTCL 260830Z AUTO 00000KT 10SM FEW005 13/13 A3002 RMK AO2 T01330128
Loading
Personal Weather Stations






























Interactive Weather Map
Tropical Storm Tracking
New forecast layout! Learn more

10-Day Weather Forecast

Advertisements
Track Severe Weather on mobile